Новоерудинский

Россия / Красноярский край     59°46′56″N   93°29′18″E
темп.,
°C
ветер,
м/с
пор.,
м/с
влажн.,
%
обл.,
%
осадки,
мм/ч
давл.,
гПа
погр.,
м
11 мая, вт
вт1101:00+4с228430 0.0 102433
04:00+3с229585 0.0 102336
07:00+6ссв238374 0.0 1023266
10:00+10ссв3462100 0.0 10221116
13:00+9св446397 0.1 10221053
16:00+7св457099 0.0 1023762
19:00+6всв3558100 0.0 10241014
22:00+2св22750 0.0 102411
12 мая, ср
ср1201:000всв11814 0.0 102510
04:00−1всв11865 0.0 102610
07:00+2вюв12610 0.0 1025331
10:00+7вюв11434 0.0 10231103
13:00+11юв11325 0.0 10211507
16:00+12ююв01295 0.0 10191741
19:00+11юв11303 0.0 10181369
22:00+5ююз22505 0.0 101912
13 мая, чт
чт1301:00+4юз11575 0.0 101910
04:00+2ююз11615 0.0 101910
07:00+6ююз134828 0.0 1018182
10:00+11юз333534 0.0 10161593
13:00+13юз452922 0.0 10152219
16:00+14юз453085 0.0 10132289
19:00+12ююз463940 0.0 10111880
22:00+7ююз3105634 0.0 1011259
14 мая, пт
пт1401:00+5ююз386284 0.0 1009240
04:00+4ю2668100 0.0 1007151
07:00+5ю3987100 1.3 1006726
10:00+4з1489100 1.9 1006521
13:00+8з3465100 2.4 10051290
16:00+9сз3457100 0.4 10051458
19:00+3сз5996100 1.8 1008656
22:00+1ссз41295100 4.2 1011835
15 мая, сб
сб1501:00−1сз512805 4.8 1012624
04:00−3зсз310865 0.0 1014451
07:00−1сз496745 0.0 10141003
10:00+3зсз5754100 0.0 10131780
13:00+4зсз4654100 0.3 10122093
16:00+4сз4663100 0.6 10121211
19:00+2сз5104422 0.0 10122149
22:00